Other Public Products
Issued by NWS Charleston, SC

Current Version | Previous Version | Text Only | Print | Product List | Glossary Off
Versions: 1 2 3 4 5 6 7 8 9 10 11 12 13 14 15 16 17 18 19 20 21 22 23 24 25 26 27 28 29 30 31 32 33 34 35 36 37 38 39 40 41 42 43 44 45 46 47 48 49 50

000
FPUS82 KCHS 230312
OPUCHS

TEST...KCHS/KSAV Gateway Observations...TEST
National Weather Service Charleston SC
1100 PM EDT TUE AUG 22 2017

NOTE: "fair" indicates few or no clouds below 12,000 feet with no
significant weather and/or obstructions to visibility.

SCZ050-WAZ558-NCZ071-TXZ119-213-PAZ071-DCZ001-FLZ074-172-MI076-
NYZ176-178-MAZ016-IL014-TNZ027-NJZ106-GAZ044-MD014-230400-

...Gateway Observations for Charleston International...

CITY           SKY/WX    TMP DP  RH WIND       PRES   REMARKS
Chas Airport   CLEAR     79  75  87 W3        29.99S
Seattle        CLEAR     77  56  48 W5        29.98R
Charlotte      PTCLDY    79  74  84 S7        29.98S
Dallas DFW     MOCLDY    89  68  49 SE7       29.97R HX  93
Dallas Love    MOCLDY    90  68  48 SE9       29.98R HX  94
Philladelphia  CLOUDY    83  72  69 SW14      29.80R
Wash National  MOCLDY    84  73  69 S14G22    29.82R HX  90
Baltimore      MOCLDY    83  72  69 W8        29.81R
Miami          MOCLDY    86  76  71 E7        30.00R HX  96
Detroit        PTCLDY    67  53  61 NW8       29.91R
Newark         TSTM      74  71  91 SW17      29.79S
Laguardia      CLOUDY    83  73  72 SW23G32   29.78R THUNDER
J F K          CLOUDY    79  75  87 SW21      29.81R
Boston Logan   MOCLDY    75  71  87 S14       29.71F
Ft. Lauderdale MOCLDY    85  77  77 SE10      29.99R HX  95
Chicago O`Hare PTCLDY    68  50  52 NW8       29.99R
Chicago Midway CLEAR     71  50  47 NW12      29.98R
Houston Bush   PTCLDY    84  73  69 S6        29.99R HX  90
Houston Hobby  PTCLDY    85  73  67 S3        29.99R HX  91
Nashville      CLOUDY    74  71  91 W6        30.00R
Atlanta        PTCLDY    80  73  79 SW7       30.02S

$$

GAZ044-118-TXZ119-213-NCZ071-DCZ001-MDZ014-506-PAZ021-071-NJZ106-
NYZ176-178-MAZ106-OHZ011-021-055-MIZ076-KYZ091-ILZ014-INZ047-
MNZ060-ONZ431-230400-

...Gateway Observations for Savannah International...

CITY           SKY/WX    TMP DP  RH WIND       PRES   REMARKS
Savannah Arpt  PTCLDY    79  76  90 S6        30.00F
Atlanta        PTCLDY    80  73  79 SW7       30.02S
Charlotte      PTCLDY    79  74  84 S7        29.98S
Dallas DFW     MOCLDY    89  68  49 SE7       29.97R HX  93
Houston Bush   PTCLDY    84  73  69 S6        29.99R HX  90
Wash National  MOCLDY    84  73  69 S14G22    29.82R HX  90
Wash Dulles    MOCLDY    81  73  76 SW10      29.82S
Baltimore      MOCLDY    83  72  69 W8        29.81R
Philadelphia   CLOUDY    83  72  69 SW14      29.80R
Newark         TSTM      74  71  91 SW17      29.79S
Laguardia      CLOUDY    83  73  72 SW23G32   29.78R THUNDER
J F K          CLOUDY    79  75  87 SW21      29.81R
Boston         MOCLDY    75  71  87 S14       29.71F
Pittsburg      MOCLDY    71  69  93 SW6       29.88R
Akron          CLOUDY    69  65  86 W6        29.89S
Cleveland      PTCLDY    70  65  84 N6        29.89S
Cincinnati     CLOUDY    71  71 100 SW5       29.95R
Columbus       CLOUDY    70  68  96 W5        29.91S
Detroit        PTCLDY    67  53  61 NW8       29.91R
Chicago O`Hare PTCLDY    68  50  52 NW8       29.99R
Minneapolis    CLEAR     67  48  50 W10       30.04S
Indianapolis   CLEAR     68  61  78 W9        29.97R
Toronto Canada CLEAR     63  54  72 W14       29.77R

$$




USA.gov is the U.S. government's official web portal to all federal, state and local government web resources and services.